Location: Newark
(40.3820°N, 3.6624°W)
Time: 15:20:56
(UTC+00:00)

N. Korean satellite - Pass Details

Date: 19 November 2019
Orbit: 456 x 506 km, 97.2° (Epoch: 06 December)

Event Time Altitude Azimuth Distance (km) Brightness Sun altitude
Rises 18:17:24 0° 206° (SSW) 2,550 10.8 -15.7°
Reaches altitude 10° 18:20:06 10° 229° (SW) 1,685 10.2 -16.2°
Maximum altitude 18:22:23 16° 268° (W) 1,374 10.0 -16.6°
Drops below altitude 10° 18:24:41 10° 306° (NW) 1,709 9.9 -17.1°
Sets 18:27:27 0° 329° (NNW) 2,607 10.5 -17.6°
